Regional Weather Roundup
Issued by NWS

Home | Current Version | Previous Version | Graphics & Text | Print | Product List | Glossary On
Versions: 1 2 3 4 5 6 7 8 9 10 11 12 13 14 15 16 17 18 19 20 21 22 23 24 25 26 27 28 29 30 31 32 33 34 35 36 37 38 39 40 41 42 43 44 45 46 47 48 49 50
164
ASUS45 KSLC 222110
RWRUT

UTAH REGIONAL WEATHER ROUNDUP
NATIONAL WEATHER SERVICE SALT LAKE CITY UT
300 PM MDT SAT JUL 22 2017

UTZ001>011-023>025-222200-

NORTHERN UTAH

CITY           SKY/WX    TMP DP  RH WIND       PRES   REMARKS
BRIGHAM CITY   SUNNY     93  24   8 NW5       30.11F
HILL AFB       SUNNY     90  45  20 N9        30.15F
LOGAN          SUNNY     92  33  12 VRB3      30.13F
OGDEN          SUNNY     93  44  18 NW9       30.11F
SALT LAKE CITY MOSUNNY   97  48  18 NW6       30.08F HX  93
TOOELE VALLEY  MOSUNNY   90  55  31 N14       30.10F
WENDOVER       SUNNY     93  33  12 VRB7      30.10F
HEBER CITY     MOSUNNY   88  41  19 W7        30.19S
WEST JORDAN    MOSUNNY   92  61  35 CALM      30.13S HX  91

$$

UTZ011>015-024>027-222200-

CENTRAL/NORTHEAST UTAH

CITY           SKY/WX    TMP DP  RH WIND       PRES   REMARKS
PROVO AIRPORT  CLOUDY    88  57  34 W6        30.12F
MOAB/CANYONLAN SUNNY     95  49  20 NE14G20   30.07F HX  92
DELTA          SUNNY     95  41  15 N7        30.09F HX  91
PRICE          HVY RAIN  81  52  36 VRB7      30.21F
ROOSEVELT      SUNNY     90  41  18 E7        30.20F
VERNAL         SUNNY     89  45  21 VRB3      30.17F

$$

UTZ013>016-019>022-027-222200-

SOUTHERN UTAH

CITY           SKY/WX    TMP DP  RH WIND       PRES   REMARKS
BRYCE CANYON   MOSUNNY   80  51  36 SE10      30.34F
CEDAR CITY     MOSUNNY   97  40  14 N9G21     30.14F HX  92
MILFORD        MOSUNNY   98  40  13 N10G17    30.09F HX  93
ST GEORGE      PTCLDY   101  51  18 VRB3      29.92F HX  98
HANKSVILLE     SUNNY     95  43  16 N9        30.11F HX  91
BLANDING       MOSUNNY   88  47  24 E8        30.23F

$$

REGIONAL REPORTS     COLORADO/ARIZONA

CITY           SKY/WX    TMP DP  RH WIND       PRES   REMARKS
CRAIG, CO      MOSUNNY   88  37  16 NE6       30.25F
GRAND JUNCTION SUNNY     90  58  33 S6        30.11F
RIFLE, CO      CLOUDY    90  47  22 N7        30.15F
MONTROSE, CO   CLOUDY    83  56  39 SW3       30.20F
CORTEZ, CO     CLOUDY    85  52  32 VRB5      30.18F
COLORADO CITY    N/A     97  46  17 W6        30.12F HX  93
PAGE, AZ       SUNNY     93  51  23 NE8       30.06F HX  90
GRAND CANYON   MOSUNNY   83  50  31 E5        30.26F
KINGMAN, AZ    MOSUNNY  100  55  22 SW14G23   30.00F HX  98
FLAGSTAFF, AZ  PTSUNNY   80  48  32 NE8G21    30.28F

$$

REGIONAL REPORTS    NEVADA/IDAHO/WYOMING

CITY           SKY/WX    TMP DP  RH WIND       PRES   REMARKS
LAS VEGAS, NV  MOSUNNY  106  50  15 VRB7      29.88F HX 103
ELY, NY        MOSUNNY   89  38  16 E3        30.21F
ELKO, NV       SUNNY     97  27   8 VRB6      30.13F HX  91
POCATELLO, ID  SUNNY     88  32  13 NW6       30.19F
BURLEY, ID     SUNNY     85  38  18 W6        30.14F
FORT BRIDGER,    N/A     86  27  11 W5        30.35F
EVANSTON, WY   PTSUNNY   84  33  16 VRB7      30.32F
ROCK SPRINGS,  SUNNY     87  24  10 NW10G22   30.30F
KEMMERER, WY     N/A    N/A N/A N/A NW8G17    30.35F

$$




USA.gov is the U.S. government's official web portal to all federal, state and local government web resources and services.